This demonstration page uses our WeatherBlox Daily Observations layout. Learn more.

Left ArrowRight Arrow

34.74481, -87.66753

Hourly Observations for April 6, 2021

Temp ( °F °C ) Dew Point ( °F °C ) Humidity (%) Winds ( mph kmh ) Pressure ( in mb ) Visibility ( mi km ) Precip ( " mm )
12:53 am 00:53 Partly Cloudy 56 13.3 46 7.8 70 70 Calm 30.03 1017 10 16 0.00 0.00
1:53 am 01:53 Cloudy 56 13.3 47 8.3 72 72 SE 3 6 30.03 1017 10 16 0.00 0.00
2:53 am 02:53 Mostly Cloudy 57 13.9 49 9.4 74 74 Calm 30.03 1017 10 16 0.00 0.00
3:53 am 03:53 Cloudy 58 14.4 48 8.9 70 70 Calm 30.03 1017 10 16 0.00 0.00
4:53 am 04:53 Cloudy 60 15.6 47 8.3 62 62 SSE 3 6 30.04 1017 10 16 0.00 0.00
5:53 am 05:53 Mostly Cloudy 60 15.6 45 7.2 58 58 SSW 3 6 30.06 1018 10 16 0.00 0.00
6:53 am 06:53 Mostly Sunny 56 13.3 44 6.7 65 65 S 3 6 30.08 1019 10 16 0.00 0.00
7:53 am 07:53 Sunny 58 14.4 48 8.9 70 70 SSE 3 6 30.10 1019 10 16 0.00 0.00
8:53 am 08:53 Mostly Sunny 66 18.9 48 8.9 52 52 SW 6 9 30.10 1019 10 16 0.00 0.00
9:53 am 09:53 Mostly Cloudy 70 21.1 50 10 49 49 SSW 5 7 30.10 1019 10 16 0.00 0.00
10:53 am 10:53 Mostly Cloudy 73 22.8 50 10 44 44 W 5 7 30.10 1019 10 16 0.00 0.00
11:53 am 11:53 Sunny 76 24.4 50 10 40 40 VRB 3 6 30.08 1019 10 16 0.00 0.00
12:53 pm 12:53 Mostly Sunny 79 26.1 49 9.4 35 35 S 7 11 30.06 1018 10 16 0.00 0.00
1:53 pm 13:53 Sunny 80 26.7 47 8.3 31 31 SSW 12 19 30.04 1017 10 16 0.00 0.00
2:53 pm 14:53 Sunny 81 27.2 48 8.9 32 32 S 9 15 30.01 1016 10 16 0.00 0.00
3:53 pm 15:53 Sunny 81 27.2 48 8.9 32 32 SSE 13 20 29.98 1015 10 16 0.00 0.00
4:53 pm 16:53 Sunny 81 27.2 47 8.3 30 30 SSW 9 15 29.97 1015 10 16 0.00 0.00
5:53 pm 17:53 Sunny 81 27.2 46 7.8 29 29 SSW 8 13 29.96 1015 10 16 0.00 0.00
6:53 pm 18:53 Sunny 77 25 46 7.8 33 33 S 6 9 29.96 1015 10 16 0.00 0.00
7:53 pm 19:53 Clear 71 21.7 47 8.3 42 42 S 5 7 29.97 1015 10 16 0.00 0.00
8:53 pm 20:53 Clear 68 20 48 8.9 49 49 S 5 7 29.98 1015 10 16 0.00 0.00
9:53 pm 21:53 Clear 67 19.4 48 8.9 51 51 S 3 6 29.99 1016 10 16 0.00 0.00
10:53 pm 22:53 Clear 62 16.7 49 9.4 62 62 SE 5 7 29.99 1016 10 16 0.00 0.00
11:53 pm 23:53 Clear 61 16.1 49 9.4 65 65 Calm 29.99 1016 10 16 0.00 0.00

Powered by AerisWeather